Tracking 28238 objects as of 28-Nov-2023
HD Live streaming from Space Station
objects crossing your sky now

NOAA 16 DEB

Track NOAA 16 DEB now!
10-day predictions


NORAD ID: 41058
Int'l Code: 2000-055R
Perigee: 851.4 km
Apogee: 885.2 km
Inclination: 98.6 °
Period: 102.2 minutes
Semi major axis: 7239 km
RCS: Unknown
Launch date: September 21, 2000
Source: United States (US)
Launch site: AIR FORCE WESTERN TEST RANGE (AFWTR)

Note: This is SATELLITE DEBRIS
Your satellite tracking list
Your tracking list is empty




NASA's NSSDC Master Catalog

Two Line Element Set (TLE):
1 41058U 00055R   23332.54836434  .00002170  00000-0  12625-2 0  9996
2 41058  98.6077 353.6069 0023341 281.1885  78.6662 14.09479456411511
Source of the keplerian elements: AFSPC